Terminal Aerodrome Forecast
Issued by NWS San Angelo, TX

Home | Current Version | Previous Version | Text Only | Print | Product List | Glossary On
Versions: 1 2 3 4 5 6 7 8 9 10 11 12 13 14 15 16 17 18 19
000
FTUS44 KSJT 270500
TAFSJT
TAF
KSJT 270526Z 2706/2806 02010KT P6SM FEW050 BKN100
     FM271500 01012KT P6SM BKN025
     FM271900 01011KT P6SM SCT025 OVC050=

USA.gov is the U.S. government's official web portal to all federal, state and local government web resources and services.